Location: *
(51.0333°S, 178.4667°E)
Time: 10:16:27
(UTC+00:00)

SWAS - Pass Details

Date: 15 November 2019
Orbit: 578 x 594 km, 69.9° (Epoch: 05 December)

Event Time Altitude Azimuth Distance (km) Brightness Sun altitude
Exits shadow 11:44:04 57° 353° (N) 703 4.4 -20.5°
Maximum altitude 11:44:52 76° 61° (ENE) 618 4.4 -20.5°
Drops below altitude 10° 11:49:13 10° 146° (SE) 1,940 7.9 -20.5°
Sets 11:51:28 0° 147° (SSE) 2,845 8.9 -20.5°
